Weather Roundup
Issued by NWS Chicago, IL

Home | Current Version | Previous Version | Graphics & Text | Print | Product List | Glossary On
Versions: 1 2 3 4 5 6 7 8 9 10 11 12 13 14 15 16 17 18 19 20 21 22 23 24 25 26 27 28 29 30 31 32 33 34 35 36 37 38 39 40 41 42 43 44 45 46 47 48 49 50
000
NZUS59 KLOT 191307
HRRLOT

CHICAGO AREA WEATHER ROUNDUP
NATIONAL WEATHER SERVICE CHICAGO/ROMEOVILLE IL
700 AM CST THU JAN 19 2017

NOTE: "FAIR" INDICATES FEW OR NO CLOUDS BELOW 12,000 FEET WITH NO
SIGNIFICANT WEATHER AND/OR OBSTRUCTIONS TO VISIBILITY.

* THESE STATIONS ARE NOT UNDER NWS QUALITY CONTROL. THEY ALSO MAY NOT
  REPORT WEATHER SUCH AS PRECIPITATION OR FOG.

ILZ005-006-012>014-019>023-191400-
NORTHEAST ILLINOIS

CITY           SKY/WX    TMP DP  RH WIND       PRES   REMARKS
OHARE          CLOUDY    33  33 100 S5        29.99F FOG     WCI  29
MIDWAY         CLOUDY    33  32  96 S5        30.01F FOG     WCI  29
AURORA         CLOUDY    33  31  92 SE5       29.99F FOG     WCI  29
LANSING*       PTCLDY    34  34 100 S6        30.02F FOG     WCI  29
JOLIET*        CLOUDY    35  35  99 S3        30.02F FOG
WAUKEGAN       FOG       33  33 100 S8        29.99S VSB 1/4 WCI  26
DUPAGE AIRPORT FOG       33  31  92 S5        29.99F VSB 1   WCI  29
WHEELING       CLOUDY    34  33  96 S8        30.01F FOG     WCI  27
KANKAKEE*      CLOUDY    34  33  96 SE5       30.03F FOG     WCI  30
MORRIS*        CLOUDY    33  32  96 SE3       30.00F FOG
LEWIS AIRPORT* CLOUDY    33  33 100 S6        30.01F FOG     WCI  27
NORTHERLY ISL    N/A     35  33  92 S8          N/A  WCI  29
$$

WIZ051-052-058>065-066-070>072-191400-
SOUTHEAST WISCONSIN

CITY           SKY/WX    TMP DP  RH WIND       PRES   REMARKS
MILWAUKEE      FOG       34  33  96 SW5       29.97F VSB 1   WCI  30
KENOSHA*       FOG       33  32  96 S6        29.99R VSB 1/4 WCI  28
RACINE*        CLOUDY    33  31  92 S6        30.00S FOG     WCI  28
WAUKESHA       CLOUDY    30  30 100 SW9       29.99  FOG     WCI  22
WEST BEND      CLOUDY    32  32 100 SW3       29.96S FOG
$$

INZ001>003-010>013-019-020-191400-
NORTHWEST INDIANA

CITY           SKY/WX    TMP DP  RH WIND       PRES   REMARKS
GARY*          CLOUDY    36  34  93 S5        30.03F FOG
MICHIGAN CITY* NOT AVBL
RENSSELAER*    NOT AVBL
VALPARAISO     FOG       35  35 100 S5        30.03F VSB 1/2 WCI  31
$$

LMZ740>746-191400-
SOUTHERN LAKE MICHIGAN

STATION/POSITION TIME  SKY/WX   TEMP WIND        PRES    VSBY
                                AIR  DIR/SP/G
                 (UTC)          (F)  (DEG/KT/KT) (MB)    (MI)
HARRISON CRIB    1240            36  190/ 12/ 13   N/A
BURNHAM HARBOR   1300            35  180/  7/ 10   N/A
CALUMET HARBOR   1248            35  160/  5/  9 1015.8F
BURNS HARBOR     1240            35  180/  7/ 14 1017.6S
MICHIGAN CITY    NOT AVBL
$$

ABBREVIATIONS USED IN REMARKS
   TC - TEMPERATURE IN CELSIUS
  WCI - WIND CHILL INDEX
   HX - HEAT INDEX
  VSB - VISIBILITY
$$




USA.gov is the U.S. government's official web portal to all federal, state and local government web resources and services.